Time,TemperatureF,DewpointF,PressureIn,WindDirection,WindDirectionDegrees,WindSpeedMPH,WindSpeedGustMPH,Humidity,HourlyPrecipIn,Conditions,Clouds,dailyrainin,SoftwareType,DateUTC
2013-06-26 00:01:00,69.0,65.0,29.82,WSW,246,0.0,0.0,88,0.00,,,0.06,,2013-06-26 04:01:00,
2013-06-26 00:12:00,69.0,66.0,29.82,WSW,246,1.0,5.0,89,0.00,,,0.06,,2013-06-26 04:12:00,
2013-06-26 00:22:00,69.0,66.0,29.82,WSW,246,1.0,5.0,89,0.00,,,0.06,,2013-06-26 04:22:00,
2013-06-26 00:33:00,69.0,66.0,29.82,WSW,246,1.0,5.0,89,0.00,,,0.06,,2013-06-26 04:33:00,
2013-06-26 00:43:00,69.0,65.0,29.82,SSW,202,1.0,9.0,87,0.00,,,0.06,,2013-06-26 04:43:00,
2013-06-26 00:53:00,69.0,65.0,29.82,WSW,257,0.0,6.0,87,0.00,,,0.06,,2013-06-26 04:53:00,
2013-06-26 01:02:00,69.0,65.0,29.82,WSW,248,1.0,6.0,87,0.00,,,0.06,,2013-06-26 05:02:00,
2013-06-26 01:11:00,69.0,65.0,29.82,WSW,248,1.0,6.0,87,0.00,,,0.06,,2013-06-26 05:11:00,
2013-06-26 01:22:00,69.0,65.0,29.82,SW,222,1.0,5.0,87,0.00,,,0.06,,2013-06-26 05:22:00,
2013-06-26 01:34:00,69.0,65.0,29.83,SW,224,1.0,5.0,87,0.00,,,0.06,,2013-06-26 05:34:00,
2013-06-26 01:43:00,69.0,65.0,29.83,SW,224,1.0,5.0,87,0.00,,,0.06,,2013-06-26 05:43:00,
2013-06-26 01:52:00,69.0,65.0,29.82,SW,227,2.0,7.0,87,0.00,,,0.06,,2013-06-26 05:52:00,
2013-06-26 02:02:00,69.0,65.0,29.82,WSW,249,4.0,8.0,86,0.00,,,0.06,,2013-06-26 06:02:00,
2013-06-26 02:12:00,69.0,65.0,29.82,WSW,249,4.0,8.0,86,0.00,,,0.06,,2013-06-26 06:12:00,
2013-06-26 02:22:00,69.0,65.0,29.82,WSW,251,4.0,9.0,87,0.00,,,0.06,,2013-06-26 06:22:00,
2013-06-26 02:34:00,68.0,64.0,29.82,West,277,1.0,8.0,88,0.00,,,0.06,,2013-06-26 06:34:00,
2013-06-26 02:44:00,68.0,64.0,29.82,West,277,1.0,8.0,88,0.00,,,0.06,,2013-06-26 06:44:00,
2013-06-26 02:53:00,68.0,64.0,29.81,West,264,1.0,7.0,88,0.00,,,0.06,,2013-06-26 06:53:00,
2013-06-26 03:01:00,69.0,65.0,29.81,West,263,3.0,8.0,88,0.00,,,0.06,,2013-06-26 07:01:00,
2013-06-26 03:11:00,69.0,65.0,29.81,West,263,3.0,8.0,88,0.00,,,0.06,,2013-06-26 07:11:00,
2013-06-26 03:22:00,68.0,65.0,29.81,West,262,3.0,6.0,89,0.00,,,0.06,,2013-06-26 07:22:00,
2013-06-26 03:33:00,69.0,66.0,29.80,WSW,239,1.0,6.0,89,0.00,,,0.06,,2013-06-26 07:33:00,
2013-06-26 03:43:00,69.0,66.0,29.80,WSW,239,1.0,6.0,89,0.00,,,0.06,,2013-06-26 07:43:00,
2013-06-26 03:53:00,68.0,65.0,29.81,WSW,250,1.0,6.0,89,0.00,,,0.06,,2013-06-26 07:53:00,
2013-06-26 04:01:00,69.0,66.0,29.80,WSW,239,1.0,5.0,89,0.00,,,0.06,,2013-06-26 08:01:00,
2013-06-26 04:22:00,69.0,65.0,29.80,WSW,252,1.0,5.0,88,0.00,,,0.06,,2013-06-26 08:22:00,
2013-06-26 04:42:00,69.0,65.0,29.80,WSW,245,0.0,5.0,88,0.00,,,0.06,,2013-06-26 08:42:00,
2013-06-26 04:53:00,69.0,65.0,29.80,WSW,244,2.0,6.0,88,0.00,,,0.06,,2013-06-26 08:53:00,
2013-06-26 05:11:00,69.0,66.0,29.80,WSW,242,0.0,5.0,89,0.00,,,0.06,,2013-06-26 09:11:00,
2013-06-26 05:23:00,69.0,66.0,29.81,WSW,247,2.0,4.0,89,0.00,,,0.06,,2013-06-26 09:23:00,
2013-06-26 05:43:00,69.0,66.0,29.81,WSW,241,1.0,7.0,89,0.00,,,0.06,,2013-06-26 09:43:00,
2013-06-26 05:53:00,69.0,66.0,29.81,WSW,241,1.0,8.0,89,0.00,,,0.06,,2013-06-26 09:53:00,
2013-06-26 06:01:00,69.0,66.0,29.82,West,260,1.0,7.0,89,0.00,,,0.06,,2013-06-26 10:01:00,
2013-06-26 06:12:00,69.0,66.0,29.82,West,260,1.0,7.0,89,0.00,,,0.06,,2013-06-26 10:12:00,
2013-06-26 06:43:00,69.0,66.0,29.82,SW,219,6.0,13.0,90,0.00,,,0.06,,2013-06-26 10:43:00,
2013-06-26 06:53:00,69.0,66.0,29.82,NW,306,6.0,12.0,90,0.00,,,0.06,,2013-06-26 10:53:00,
2013-06-26 07:02:00,68.0,65.0,29.82,West,269,4.0,8.0,90,0.00,,,0.06,,2013-06-26 11:02:00,
2013-06-26 07:12:00,68.0,65.0,29.82,West,269,4.0,8.0,90,0.00,,,0.06,,2013-06-26 11:12:00,
2013-06-26 07:23:00,68.0,65.0,29.83,West,260,3.0,13.0,90,0.00,,,0.06,,2013-06-26 11:23:00,
2013-06-26 07:44:00,68.0,65.0,29.83,SSW,195,3.0,12.0,90,0.00,,,0.06,,2013-06-26 11:44:00,
2013-06-26 07:52:00,68.0,65.0,29.83,SW,235,4.0,11.0,90,0.00,,,0.06,,2013-06-26 11:52:00,
2013-06-26 08:02:00,68.0,65.0,29.83,West,263,5.0,14.0,91,0.00,,,0.06,,2013-06-26 12:02:00,
2013-06-26 08:12:00,68.0,65.0,29.83,West,263,5.0,14.0,91,0.00,,,0.06,,2013-06-26 12:12:00,
2013-06-26 08:22:00,68.0,66.0,29.83,WSW,241,4.0,8.0,92,0.00,,,0.06,,2013-06-26 12:22:00,
2013-06-26 08:33:00,68.0,66.0,29.82,WSW,241,1.0,6.0,93,0.00,,,0.06,,2013-06-26 12:33:00,
2013-06-26 08:43:00,68.0,66.0,29.82,WSW,241,1.0,6.0,93,0.00,,,0.06,,2013-06-26 12:43:00,
2013-06-26 08:52:00,68.0,66.0,29.82,WSW,258,1.0,7.0,92,0.00,,,0.06,,2013-06-26 12:52:00,
2013-06-26 09:02:00,69.0,66.0,29.81,West,270,1.0,6.0,91,0.00,,,0.06,,2013-06-26 13:02:00,
2013-06-26 09:11:00,69.0,66.0,29.81,West,270,1.0,6.0,91,0.00,,,0.06,,2013-06-26 13:11:00,
2013-06-26 09:34:00,69.0,66.0,29.82,West,270,0.0,5.0,90,0.00,,,0.01,,2013-06-26 13:34:00,
2013-06-26 09:43:00,70.0,66.0,29.82,WSW,250,4.0,9.0,88,0.00,,,0.01,,2013-06-26 13:43:00,
2013-06-26 09:53:00,70.0,66.0,29.82,WSW,246,3.0,9.0,87,0.00,,,0.01,,2013-06-26 13:53:00,
2013-06-26 10:02:00,71.0,67.0,29.82,West,265,5.0,11.0,86,0.00,,,0.01,,2013-06-26 14:02:00,
2013-06-26 10:12:00,71.0,67.0,29.82,West,265,5.0,11.0,86,0.00,,,0.01,,2013-06-26 14:12:00,
2013-06-26 10:24:00,71.0,67.0,29.83,West,269,4.0,11.0,86,0.00,,,0.00,,2013-06-26 14:24:00,
2013-06-26 10:42:00,71.0,66.0,29.82,WNW,297,7.0,15.0,85,0.00,,,0.00,,2013-06-26 14:42:00,
2013-06-26 10:53:00,71.0,67.0,29.83,WSW,249,4.0,13.0,86,0.00,,,0.00,,2013-06-26 14:53:00,
2013-06-26 11:02:00,70.0,66.0,29.84,WNW,296,2.0,14.0,88,0.00,,,0.00,,2013-06-26 15:02:00,
2013-06-26 11:12:00,70.0,66.0,29.84,WNW,296,2.0,14.0,88,0.00,,,0.00,,2013-06-26 15:12:00,
2013-06-26 11:22:00,70.0,66.0,29.83,SW,230,6.0,14.0,88,0.00,,,0.00,,2013-06-26 15:22:00,
2013-06-26 11:34:00,70.0,66.0,29.83,WSW,240,3.0,14.0,88,0.00,,,0.00,,2013-06-26 15:34:00,
2013-06-26 11:44:00,70.0,66.0,29.83,WSW,240,3.0,14.0,88,0.00,,,0.00,,2013-06-26 15:44:00,
2013-06-26 11:53:00,71.0,67.0,29.84,WNW,291,6.0,12.0,88,0.00,,,0.00,,2013-06-26 15:53:00,
2013-06-26 12:01:00,71.0,67.0,29.84,WNW,291,6.0,12.0,88,0.00,,,0.00,,2013-06-26 16:01:00,
2013-06-26 12:11:00,70.0,66.0,29.84,WSW,253,7.0,12.0,88,0.00,,,0.00,,2013-06-26 16:11:00,
2013-06-26 12:34:00,69.0,66.0,29.85,WNW,290,6.0,15.0,90,0.00,,,0.00,,2013-06-26 16:34:00,
2013-06-26 12:43:00,70.0,67.0,29.84,SW,217,7.0,13.0,91,0.00,,,0.00,,2013-06-26 16:43:00,
2013-06-26 12:52:00,71.0,67.0,29.84,SW,236,7.0,16.0,88,0.00,,,0.00,,2013-06-26 16:52:00,
2013-06-26 13:02:00,72.0,68.0,29.84,West,276,6.0,18.0,87,0.00,,,0.00,,2013-06-26 17:02:00,
2013-06-26 13:11:00,72.0,68.0,29.84,West,276,6.0,18.0,87,0.00,,,0.00,,2013-06-26 17:11:00,
2013-06-26 13:33:00,72.0,68.0,29.83,SW,232,6.0,13.0,86,0.00,,,0.00,,2013-06-26 17:33:00,
2013-06-26 13:43:00,73.0,68.0,29.83,West,275,4.0,19.0,85,0.00,,,0.00,,2013-06-26 17:43:00,
2013-06-26 13:52:00,74.0,68.0,29.83,SSW,206,9.0,16.0,83,0.00,,,0.00,,2013-06-26 17:52:00,
2013-06-26 14:01:00,75.0,69.0,29.83,SW,225,6.0,17.0,81,0.00,,,0.00,,2013-06-26 18:01:00,
2013-06-26 14:12:00,75.0,69.0,29.83,SW,225,6.0,17.0,81,0.00,,,0.00,,2013-06-26 18:12:00,
2013-06-26 14:22:00,74.0,68.0,29.84,West,268,6.0,15.0,82,0.00,,,0.00,,2013-06-26 18:22:00,
2013-06-26 14:34:00,74.0,68.0,29.83,West,263,7.0,15.0,81,0.00,,,0.00,,2013-06-26 18:34:00,
2013-06-26 14:43:00,74.0,68.0,29.83,West,263,7.0,15.0,81,0.00,,,0.00,,2013-06-26 18:43:00,
2013-06-26 14:52:00,74.0,67.0,29.83,SW,236,7.0,17.0,80,0.00,,,0.00,,2013-06-26 18:52:00,
2013-06-26 15:02:00,75.0,68.0,29.83,West,264,7.0,14.0,78,0.00,,,0.00,,2013-06-26 19:02:00,
2013-06-26 15:11:00,75.0,68.0,29.83,West,264,7.0,14.0,78,0.00,,,0.00,,2013-06-26 19:11:00,
2013-06-26 15:33:00,75.0,67.0,29.83,WNW,294,6.0,16.0,76,0.00,,,0.00,,2013-06-26 19:33:00,
2013-06-26 15:43:00,76.0,67.0,29.83,West,275,8.0,12.0,74,0.00,,,0.00,,2013-06-26 19:43:00,
2013-06-26 15:52:00,76.0,65.0,29.82,SW,236,9.0,16.0,70,0.00,,,0.00,,2013-06-26 19:52:00,
2013-06-26 16:12:00,77.0,66.0,29.82,WNW,286,4.0,11.0,70,0.00,,,0.00,,2013-06-26 20:12:00,
2013-06-26 16:34:00,77.0,66.0,29.82,West,271,5.0,14.0,70,0.00,,,0.00,,2013-06-26 20:34:00,
2013-06-26 16:43:00,77.0,66.0,29.81,WNW,283,5.0,14.0,70,0.00,,,0.00,,2013-06-26 20:43:00,
2013-06-26 16:52:00,77.0,66.0,29.81,West,277,3.0,14.0,70,0.00,,,0.00,,2013-06-26 20:52:00,
2013-06-26 17:02:00,77.0,66.0,29.81,West,277,3.0,14.0,70,0.00,,,0.00,,2013-06-26 21:02:00,
2013-06-26 17:12:00,77.0,66.0,29.81,WSW,246,6.0,13.0,70,0.00,,,0.00,,2013-06-26 21:12:00,
2013-06-26 17:23:00,77.0,67.0,29.80,West,265,5.0,10.0,71,0.00,,,0.00,,2013-06-26 21:23:00,
2013-06-26 17:33:00,78.0,66.0,29.80,WNW,302,4.0,12.0,67,0.00,,,0.00,,2013-06-26 21:33:00,
2013-06-26 17:43:00,78.0,66.0,29.80,WNW,302,4.0,12.0,67,0.00,,,0.00,,2013-06-26 21:43:00,
2013-06-26 17:52:00,78.0,67.0,29.80,WNW,292,1.0,15.0,69,0.00,,,0.00,,2013-06-26 21:52:00,
2013-06-26 18:01:00,77.0,66.0,29.80,WSW,249,4.0,13.0,70,0.00,,,0.00,,2013-06-26 22:01:00,
2013-06-26 18:11:00,77.0,66.0,29.80,WSW,249,4.0,13.0,70,0.00,,,0.00,,2013-06-26 22:11:00,
2013-06-26 18:22:00,77.0,66.0,29.79,West,260,4.0,10.0,69,0.00,,,0.00,,2013-06-26 22:22:00,
2013-06-26 18:43:00,76.0,65.0,29.80,NW,313,4.0,13.0,70,0.00,,,0.00,,2013-06-26 22:43:00,
2013-06-26 18:52:00,75.0,65.0,29.79,West,259,5.0,11.0,72,0.00,,,0.00,,2013-06-26 22:52:00,
2013-06-26 19:12:00,75.0,65.0,29.79,West,279,2.0,8.0,72,0.00,,,0.00,,2013-06-26 23:12:00,
2013-06-26 19:22:00,76.0,65.0,29.78,WNW,284,6.0,13.0,70,0.00,,,0.00,,2013-06-26 23:22:00,
2013-06-26 19:34:00,76.0,66.0,29.79,WSW,238,4.0,8.0,72,0.00,,,0.00,,2013-06-26 23:34:00,
2013-06-26 19:43:00,76.0,66.0,29.79,WSW,238,4.0,8.0,72,0.00,,,0.00,,2013-06-26 23:43:00,
2013-06-26 19:53:00,76.0,65.0,29.79,SW,235,2.0,8.0,70,0.00,,,0.00,,2013-06-26 23:53:00,
2013-06-26 20:01:00,75.0,65.0,29.78,WSW,253,1.0,6.0,71,0.00,,,0.00,,2013-06-27 00:01:00,
2013-06-26 20:12:00,75.0,65.0,29.78,WSW,253,1.0,6.0,71,0.00,,,0.00,,2013-06-27 00:12:00,
2013-06-26 20:22:00,74.0,65.0,29.78,WSW,253,0.0,4.0,73,0.00,,,0.00,,2013-06-27 00:22:00,
2013-06-26 20:33:00,74.0,65.0,29.78,WSW,253,0.0,4.0,73,0.00,,,0.00,,2013-06-27 00:33:00,
2013-06-26 20:43:00,73.0,64.0,29.78,West,262,0.0,4.0,74,0.00,,,0.00,,2013-06-27 00:43:00,
2013-06-26 20:53:00,72.0,64.0,29.78,West,263,0.0,0.0,76,0.00,,,0.00,,2013-06-27 00:53:00,
2013-06-26 21:01:00,72.0,64.0,29.78,West,263,0.0,0.0,76,0.00,,,0.00,,2013-06-27 01:01:00,
2013-06-26 21:11:00,72.0,64.0,29.78,West,263,0.0,0.0,76,0.00,,,0.00,,2013-06-27 01:11:00,
2013-06-26 21:22:00,72.0,64.0,29.78,West,263,0.0,0.0,76,0.00,,,0.00,,2013-06-27 01:22:00,
2013-06-26 21:32:00,70.0,64.0,29.78,West,263,0.0,3.0,82,0.00,,,0.00,,2013-06-27 01:32:00,
2013-06-26 21:43:00,70.0,64.0,29.78,West,263,0.0,3.0,82,0.00,,,0.00,,2013-06-27 01:43:00,
2013-06-26 21:53:00,70.0,64.0,29.78,West,263,0.0,3.0,82,0.00,,,0.00,,2013-06-27 01:53:00,
2013-06-26 22:01:00,69.0,64.0,29.79,West,263,0.0,0.0,83,0.00,,,0.00,,2013-06-27 02:01:00,
2013-06-26 22:11:00,69.0,64.0,29.79,West,263,0.0,0.0,83,0.00,,,0.00,,2013-06-27 02:11:00,
2013-06-26 22:22:00,69.0,64.0,29.79,West,263,0.0,0.0,83,0.00,,,0.00,,2013-06-27 02:22:00,
2013-06-26 22:32:00,69.0,64.0,29.79,West,263,0.0,0.0,85,0.00,,,0.00,,2013-06-27 02:32:00,
2013-06-26 22:42:00,69.0,64.0,29.79,West,263,0.0,0.0,85,0.00,,,0.00,,2013-06-27 02:42:00,
2013-06-26 22:52:00,69.0,64.0,29.79,SW,231,0.0,0.0,85,0.00,,,0.00,,2013-06-27 02:52:00,
2013-06-26 23:02:00,69.0,64.0,29.79,SW,231,0.0,0.0,85,0.00,,,0.00,,2013-06-27 03:02:00,
2013-06-26 23:11:00,69.0,64.0,29.79,SW,231,0.0,0.0,85,0.00,,,0.00,,2013-06-27 03:11:00,
2013-06-26 23:22:00,69.0,65.0,29.79,SW,231,0.0,0.0,87,0.00,,,0.00,,2013-06-27 03:22:00,
2013-06-26 23:33:00,69.0,65.0,29.79,SW,231,0.0,0.0,87,0.00,,,0.00,,2013-06-27 03:33:00,
2013-06-26 23:42:00,70.0,66.0,29.79,SW,230,0.0,0.0,87,0.00,,,0.00,,2013-06-27 03:42:00,
2013-06-26 23:52:00,70.0,66.0,29.79,SW,230,0.0,0.0,87,0.00,,,0.00,,2013-06-27 03:52:00,